Freeland, MI

3:57 AM EST on December 04, 2016 (GMT -0500)
MBS International

Weather History for KMBS - January, 2013

Change the Weather History Date:

Monday, January 14, 2013

  Actual Average Record
Temperature  
Mean Temperature 22 °F 22 °F  
Max Temperature 26 °F 29 °F 36 °F (2014)
Min Temperature 15 °F 15 °F -6 °F (2015)
Degree Days  
Heating Degree Days 44    
Month to date heating degree days  
Since 1 July heating degree days  
Cooling Degree Days 0    
Month to date cooling degree days  
Year to date cooling degree days  
Moisture  
Dew Point 13 °F    
Average Humidity 71    
Maximum Humidity 84    
Minimum Humidity 60    
Precipitation  
Precipitation 0.00 in 0.06 in 0.21 in (2002)
Month to date precipitation 0.87  
Year to date precipitation 0.87  
Snow  
Snow 0.00 in - - ()
Month to date snowfall  
Since 1 July snowfall  
Snow Depth -    
Sea Level Pressure  
Sea Level Pressure 30.33 in    
Wind  
Wind Speed 14 mph (WSW)    
Max Wind Speed 21 mph    
Max Gust Speed 26 mph    
Visibility 10 miles    
Events Snow    
T = Trace of Precipitation, MM = Missing Value Source: NWS Daily Summary

Daily Weather History Graph

Daily Weather History Graph

Search for Another Location

Airport or City:

Trip Planner

Search our weather history database for the weather conditions in past years. The results will help you decide how hot, cold, wet, or windy it might be!

Date:

Astronomy

Jan. 14, 2013 Rise Set
Actual Time 8:06 AM EST 5:24 PM EST
Civil Twilight 7:34 AM EST 5:56 PM EST
Nautical Twilight 6:59 AM EST 6:31 PM EST
Astronomical Twilight 6:25 AM EST 7:06 PM EST
Moon 9:32 AM EST (1/14) 9:17 PM EST (1/14)
Length of Visible Light 10h 21m
Length of Day
9h 17m
Waxing Crescent, 11% of the Moon is Illuminated
Jan 14
Waxing Crescent
Jan 18
First Quarter
Jan 26
Full
Feb 3
Last Quarter
Feb 10
New

Hourly Weather History & Observations

Time (EST) Temp. Windchill Dew Point Humidity Pressure Visibility Wind Dir Wind Speed Gust Speed Precip Events Conditions
12:53 AM 26.1 °F 12.0 °F 19.0 °F 75% 30.06 in 10.0 mi West 20.7 mph - N/A   Overcast
1:53 AM 25.0 °F 12.2 °F 18.0 °F 75% 30.10 in 10.0 mi West 16.1 mph - N/A   Overcast
2:53 AM 24.1 °F 10.1 °F 17.1 °F 75% 30.15 in 10.0 mi West 18.4 mph 26.5 mph N/A   Overcast
3:53 AM 21.9 °F 8.2 °F 14.0 °F 72% 30.19 in 8.0 mi West 16.1 mph - 0.00 in Snow Light Snow
4:53 AM 21.0 °F 6.6 °F 14.0 °F 74% 30.23 in 9.0 mi West 17.3 mph - 0.00 in Snow Light Snow
5:53 AM 21.9 °F 9.8 °F 12.9 °F 68% 30.27 in 10.0 mi WSW 12.7 mph - 0.00 in   Overcast
6:05 AM 21.2 °F 7.8 °F 14.0 °F 74% 30.24 in 9.0 mi West 15.0 mph - 0.00 in Snow Light Snow
6:53 AM 21.0 °F 8.1 °F 12.9 °F 71% 30.30 in 10.0 mi West 13.8 mph - 0.00 in   Overcast
7:12 AM 21.2 °F 6.4 °F 12.2 °F 68% 30.28 in 9.0 mi West 18.4 mph 24.2 mph 0.00 in   Overcast
7:53 AM 19.9 °F 6.7 °F 12.0 °F 71% 30.33 in 9.0 mi West 13.8 mph - 0.00 in   Overcast
8:16 AM 19.4 °F 7.2 °F 12.2 °F 74% 30.32 in 8.0 mi West 11.5 mph - 0.00 in   Overcast
8:53 AM 19.0 °F 6.8 °F 12.0 °F 74% 30.37 in 10.0 mi West 11.5 mph - 0.00 in   Scattered Clouds
9:46 AM 19.4 °F 8.6 °F 12.2 °F 74% 30.37 in 10.0 mi WNW 9.2 mph - N/A   Mostly Cloudy
9:53 AM 19.9 °F 7.3 °F 12.0 °F 71% 30.41 in 7.0 mi WNW 12.7 mph - 0.00 in Snow Light Snow
10:32 AM 19.4 °F 6.0 °F 10.4 °F 68% 30.37 in 10.0 mi West 13.8 mph - 0.00 in   Scattered Clouds
10:53 AM 19.9 °F 6.7 °F 10.0 °F 65% 30.40 in 10.0 mi West 13.8 mph - 0.00 in   Clear
11:53 AM 21.0 °F 9.3 °F 9.0 °F 60% 30.40 in 10.0 mi West 11.5 mph - N/A   Clear
12:53 PM 23.0 °F 13.1 °F 10.9 °F 60% 30.37 in 10.0 mi West 9.2 mph - N/A   Clear
1:53 PM 23.0 °F 13.9 °F 12.0 °F 63% 30.37 in 10.0 mi West 8.1 mph - N/A   Clear
2:53 PM 24.1 °F 16.0 °F 12.0 °F 60% 30.39 in 10.0 mi SW 6.9 mph - N/A   Clear
3:53 PM 24.1 °F 15.2 °F 14.0 °F 65% 30.42 in 10.0 mi SSW 8.1 mph - N/A   Clear
4:53 PM 24.8 °F 16.1 °F 14.0 °F 64% 30.38 in 10.0 mi WSW 8.1 mph - N/A   Clear
5:53 PM 23.0 °F 15.8 °F 12.0 °F 63% 30.44 in 10.0 mi SW 5.8 mph - N/A   Clear
6:53 PM 19.9 °F 12.1 °F 12.9 °F 74% 30.43 in 10.0 mi South 5.8 mph - N/A   Clear
7:53 PM 19.9 °F 14.9 °F 12.9 °F 74% 30.43 in 10.0 mi SSW 3.5 mph - N/A   Clear
8:53 PM 18.0 °F 11.1 °F 12.0 °F 78% 30.42 in 10.0 mi SW 4.6 mph - N/A   Clear
9:53 PM 19.0 °F 9.0 °F 12.9 °F 77% 30.43 in 10.0 mi SW 8.1 mph - N/A   Clear
10:53 PM 17.1 °F 8.7 °F 12.0 °F 81% 30.42 in 10.0 mi SW 5.8 mph - N/A   Clear
11:53 PM 15.1 °F 6.4 °F 10.9 °F 84% 30.42 in 10.0 mi West 5.8 mph - N/A   Clear